Montpelier, VT

4:45 AM EST on November 13, 2019 (GMT -0500)
Knapp State

Weather History for KMPV - September, 2019

Change the Weather History Date:

Tuesday, September 24, 2019

  Actual Average Record
Temperature  
Mean Temperature 58 °F 54 °F  
Max Temperature 63 °F 65 °F 85 °F (2017)
Min Temperature 52 °F 43 °F 20 °F (1963)
Degree Days  
Heating Degree Days 8 11  
Month to date heating degree days 180 171  
Since 1 July heating degree days 248 279  
Cooling Degree Days 0 0  
Month to date cooling degree days 9 16  
Year to date cooling degree days 220 260  
Growing Degree Days 8 (Base 50)    
Moisture  
Dew Point 54 °F    
Average Humidity 90    
Maximum Humidity 100    
Minimum Humidity 75    
Precipitation  
Precipitation 0.06 in 0.12 in 1.08 in (1965)
Month to date precipitation 2.64 2.42  
Year to date precipitation 37.44 27.22  
Sea Level Pressure  
Sea Level Pressure 29.78 in    
Wind  
Wind Speed 4 mph ()    
Max Wind Speed 17 mph    
Max Gust Speed 23 mph    
Visibility 8.5 miles    
Events Fog , Rain    
T = Trace of Precipitation, MM = Missing Value Source: Averaged Metar Reports

Daily Weather History Graph

Daily Weather History Graph

Search for Another Location

Airport or City:

Astronomy

Sep. 24, 2019 Rise Set
Actual Time 6:39 AM EDT 6:44 PM EDT
Civil Twilight 6:10 AM EDT 7:13 PM EDT
Nautical Twilight 5:36 AM EDT 7:47 PM EDT
Astronomical Twilight 5:02 AM EDT 8:21 PM EDT
Moon 1:07 AM EDT (9/24) 4:40 PM EDT (9/24)
Length of Visible Light 13h 02m
Length of Day
12h 04m
Waning Crescent, 23% of the Moon is Illuminated
Sep 24
Waning Crescent
Sep 28
New
Oct 5
First Quarter
Oct 13
Full
Oct 21
Last Quarter

Hourly Weather History & Observations

Time (EDT) Temp. Dew Point Humidity Pressure Visibility Wind Dir Wind Speed Gust Speed Precip Events Conditions
12:51 AM 59.0 °F 59.0 °F 100% 29.70 in 10.0 mi Calm Calm - N/A   Scattered Clouds
1:16 AM 60.1 °F 60.1 °F 100% 29.73 in 10.0 mi NW 6.9 mph - N/A   Overcast
1:37 AM 60.1 °F 60.1 °F 100% 29.72 in 10.0 mi Calm Calm - N/A   Overcast
1:51 AM 60.1 °F 59.0 °F 96% 29.71 in 10.0 mi West 3.5 mph - N/A   Mostly Cloudy
2:41 AM 57.9 °F 57.9 °F 100% 29.70 in 1.8 mi Calm Calm - N/A   Clear
2:51 AM 59.0 °F 57.9 °F 96% 29.69 in 6.0 mi Calm Calm - N/A   Clear
3:14 AM 57.0 °F 57.0 °F 100% 29.70 in 2.0 mi Calm Calm - N/A   Scattered Clouds
3:16 AM 57.0 °F 57.0 °F 100% 29.70 in 1.0 mi Calm Calm - N/A   Scattered Clouds
3:23 AM 57.0 °F 57.0 °F 100% 29.70 in 0.5 mi Calm Calm - N/A Fog Fog
3:31 AM 57.9 °F 57.9 °F 100% 29.70 in 1.2 mi Calm Calm - N/A   Scattered Clouds
3:33 AM 57.9 °F 57.9 °F 100% 29.71 in 2.0 mi Calm Calm - N/A   Scattered Clouds
3:41 AM 57.0 °F 57.0 °F 100% 29.71 in 10.0 mi Calm Calm - N/A   Scattered Clouds
3:51 AM 55.9 °F 55.9 °F 100% 29.70 in 4.0 mi Calm Calm - N/A   Partly Cloudy
4:51 AM 55.0 °F 55.0 °F 100% 29.70 in 10.0 mi Calm Calm - N/A   Mostly Cloudy
5:51 AM 59.0 °F 55.9 °F 90% 29.71 in 10.0 mi West 5.8 mph - N/A   Mostly Cloudy
6:51 AM 57.9 °F 55.0 °F 90% 29.73 in 10.0 mi West 9.2 mph - N/A   Mostly Cloudy
7:51 AM 59.0 °F 53.1 °F 81% 29.74 in 10.0 mi WSW 4.6 mph - N/A   Mostly Cloudy
8:51 AM 62.1 °F 54.0 °F 75% 29.75 in 10.0 mi SSW 3.5 mph - N/A   Scattered Clouds
9:51 AM 62.1 °F 55.0 °F 78% 29.76 in 10.0 mi Calm Calm - N/A   Overcast
10:51 AM 57.9 °F 55.9 °F 93% 29.77 in 10.0 mi NNW 8.1 mph - 0.02 in Rain Light Rain
11:51 AM 59.0 °F 57.0 °F 93% 29.77 in 10.0 mi NW 12.7 mph - 0.03 in   Overcast
12:22 PM 57.9 °F 54.0 °F 87% 29.77 in 10.0 mi NW 9.2 mph - 0.00 in Rain Light Rain
12:48 PM 60.8 °F 55.4 °F 82% 29.77 in 10.0 mi NW 12.7 mph - 0.00 in   Mostly Cloudy
12:51 PM 60.1 °F 55.0 °F 83% 29.77 in 10.0 mi NW 11.5 mph - 0.00 in   Mostly Cloudy
1:10 PM 61.0 °F 54.0 °F 78% 29.77 in 10.0 mi NNW 13.8 mph - N/A   Scattered Clouds
1:51 PM 60.1 °F 54.0 °F 80% 29.77 in 10.0 mi WNW 13.8 mph 19.6 mph N/A   Overcast
2:22 PM 61.0 °F 54.0 °F 78% 29.78 in 10.0 mi NNW 12.7 mph - N/A   Mostly Cloudy
2:51 PM 60.1 °F 54.0 °F 80% 29.79 in 10.0 mi NNW 10.4 mph - N/A   Overcast
3:51 PM 57.9 °F 51.1 °F 78% 29.81 in 10.0 mi NW 13.8 mph 17.3 mph N/A   Overcast
4:51 PM 55.9 °F 53.1 °F 90% 29.83 in 10.0 mi WNW 8.1 mph - 0.01 in   Overcast
5:51 PM 55.9 °F 50.0 °F 80% 29.84 in 10.0 mi WNW 11.5 mph - N/A   Mostly Cloudy
6:06 PM 55.0 °F 50.0 °F 83% 29.83 in 10.0 mi NW 10.4 mph - N/A   Mostly Cloudy
6:51 PM 54.0 °F 51.1 °F 90% 29.85 in 10.0 mi Calm Calm - N/A   Overcast
7:51 PM 53.1 °F 50.0 °F 89% 29.88 in 10.0 mi WNW 4.6 mph - N/A   Overcast
8:35 PM 53.1 °F 50.0 °F 89% 29.87 in 10.0 mi Calm Calm - N/A   Overcast
8:51 PM 53.1 °F 50.0 °F 89% 29.88 in 10.0 mi Calm Calm - N/A   Overcast
9:24 PM 53.1 °F 50.0 °F 89% 29.87 in 10.0 mi West 3.5 mph - N/A   Overcast
9:42 PM 54.0 °F 50.0 °F 86% 29.87 in 10.0 mi NW 5.8 mph - N/A   Overcast
9:51 PM 53.1 °F 50.0 °F 89% 29.88 in 8.0 mi NW 9.2 mph - 0.00 in Rain Light Rain
10:16 PM 53.1 °F 50.0 °F 89% 29.88 in 10.0 mi WNW 6.9 mph - 0.00 in   Overcast
10:51 PM 52.0 °F 48.9 °F 89% 29.89 in 10.0 mi NW 6.9 mph - 0.00 in   Mostly Cloudy
11:51 PM 53.1 °F 48.9 °F 86% 29.88 in 10.0 mi WNW 4.6 mph - N/A   Overcast